| time (UTC) | temp C | wind direction | speed KPH | gust KPH | rain 1hr cm | rain 24hr cm | rain mn cm | humidity % | barometer mb |
| 20260505195006 | 20 | 347 | 20.9 | 27.4 | 0.00 | 0.00 | 0.00 | 39 | 1011.0 |
| 20260505194006 | 20 | 80 | 3.2 | 16.1 | 0.00 | 0.00 | 0.00 | 41 | 1011.2 |
| 20260505185006 | 19 | 352 | 14.5 | 20.9 | 0.00 | 0.00 | 0.00 | 41 | 1011.2 |
| 20260505184006 | 19 | 309 | 9.7 | 19.3 | 0.00 | 0.00 | 0.00 | 40 | 1011.2 |
| 20260505183006 | 18 | 15 | 8.0 | 19.3 | 0.00 | 0.00 | 0.00 | 43 | 1011.2 |
| 20260505175006 | 18 | 211 | 3.2 | 12.9 | 0.00 | 0.00 | 0.00 | 46 | 1011.4 |
| 20260505165007 | 16 | 248 | 4.8 | 11.3 | 0.00 | 0.00 | 0.00 | 46 | 1011.9 |
| 20260505164007 | 16 | 319 | 4.8 | 12.9 | 0.00 | 0.00 | 0.00 | 50 | 1012.0 |
| 20260505163009 | 15 | 357 | 4.8 | 9.7 | 0.00 | 0.00 | 0.00 | 54 | 1012.0 |
| 20260505162007 | 14 | 337 | 3.2 | 8.0 | 0.00 | 0.00 | 0.00 | 62 | 1012.0 |
| 20260505153007 | 9 | 42 | 1.6 | 4.8 | 0.00 | 0.00 | 0.00 | 78 | 1012.5 |
| 20260505152007 | 8 | 65 | 1.6 | 4.8 | 0.00 | 0.00 | 0.00 | 81 | 1012.5 |
| 20260505124007 | 1 | 161 | 0.0 | 0.0 | 0.00 | 0.00 | 0.00 | 91 | 1011.7 |
| 20260505122007 | 1 | 161 | 0.0 | 0.0 | 0.00 | 0.00 | 0.00 | 90 | 1011.5 |
| 20260505120005 | 1 | 161 | 0.0 | 0.0 | 0.00 | 0.00 | 0.00 | 90 | 1011.4 |
| 20260505113007 | 2 | 196 | 0.0 | 0.0 | 0.00 | 0.00 | 0.00 | 89 | 1011.1 |
| 20260505112007 | 2 | 196 | 0.0 | 0.0 | 0.00 | 0.00 | 0.00 | 90 | 1011.1 |
| 20260505102007 | 2 | 191 | 1.6 | 4.8 | 0.00 | 0.00 | 0.00 | 88 | 1010.8 |
| 20260505101007 | 3 | 191 | 0.0 | 1.6 | 0.00 | 0.00 | 0.00 | 88 | 1010.8 |
| 20260505094006 | 3 | 153 | 3.2 | 4.8 | 0.00 | 0.00 | 0.00 | 87 | 1010.4 |
| 20260505093007 | 3 | 244 | 1.6 | 4.8 | 0.00 | 0.00 | 0.00 | 87 | 1010.3 |
| 20260505090005 | 4 | 180 | 0.0 | 0.0 | 0.00 | 0.00 | 0.00 | 85 | 1010.1 |
| 20260505084006 | 5 | 132 | 0.0 | 0.0 | 0.00 | 0.00 | 0.00 | 85 | 1010.1 |
| 20260505083006 | 5 | 129 | 0.0 | 0.0 | 0.00 | 0.00 | 0.00 | 84 | 1010.0 |
| 20260505082007 | 5 | 129 | 0.0 | 1.6 | 0.00 | 0.00 | 0.00 | 83 | 1010.0 |
| 20260505081007 | 5 | 129 | 1.6 | 4.8 | 0.00 | 0.00 | 0.00 | 82 | 1010.0 |
| 20260505080005 | 6 | 161 | 1.6 | 4.8 | 0.00 | 0.00 | 0.00 | 83 | 1009.9 |
| 20260505075006 | 6 | 191 | 1.6 | 4.8 | 0.00 | 0.00 | 0.00 | 80 | 1009.9 |
| 20260505074007 | 6 | 163 | 1.6 | 4.8 | 0.00 | 0.00 | 0.00 | 80 | 1009.8 |
| 20260505073007 | 7 | 163 | 0.0 | 9.7 | 0.00 | 0.00 | 0.00 | 79 | 1009.7 |
| 20260505071006 | 7 | 161 | 1.6 | 8.0 | 0.00 | 0.00 | 0.00 | 76 | 1009.6 |
| 20260505064006 | 8 | 337 | 3.2 | 4.8 | 0.00 | 0.00 | 0.00 | 71 | 1009.4 |
| 20260505062007 | 10 | 9 | 0.0 | 3.2 | 0.00 | 0.00 | 0.00 | 67 | 1009.2 |
| 20260505060005 | 12 | 71 | 1.6 | 8.0 | 0.00 | 0.00 | 0.00 | 62 | 1009.1 |
| 20260505055006 | 13 | 193 | 4.8 | 11.3 | 0.00 | 0.00 | 0.00 | 56 | 1009.0 |
| 20260505054007 | 13 | 207 | 3.2 | 4.8 | 0.00 | 0.00 | 0.00 | 56 | 1009.0 |
| 20260505053007 | 14 | 207 | 1.6 | 9.7 | 0.00 | 0.00 | 0.00 | 56 | 1008.9 |
| 20260505052006 | 15 | 198 | 4.8 | 14.5 | 0.00 | 0.00 | 0.00 | 49 | 1008.7 |
| 20260505034007 | 15 | 56 | 1.6 | 4.8 | 0.00 | 0.00 | 0.00 | 53 | 1008.0 |
| 20260505031006 | 16 | 242 | 3.2 | 4.8 | 0.00 | 0.00 | 0.00 | 53 | 1007.3 |
| 20260505024006 | 20 | 9 | 4.8 | 14.5 | 0.00 | 0.00 | 0.00 | 38 | 1007.0 |
| 20260505023006 | 20 | 351 | 6.4 | 14.5 | 0.00 | 0.00 | 0.00 | 37 | 1006.8 |
| 20260505022006 | 21 | 326 | 9.7 | 19.3 | 0.00 | 0.00 | 0.00 | 37 | 1006.7 |
| 20260505021006 | 21 | 353 | 16.1 | 24.1 | 0.00 | 0.00 | 0.00 | 34 | 1006.7 |
| 20260505020004 | 21 | 336 | 14.5 | 20.9 | 0.00 | 0.00 | 0.00 | 34 | 1006.6 |
| 20260505013006 | 22 | 345 | 14.5 | 25.7 | 0.00 | 0.00 | 0.00 | 33 | 1006.3 |
| 20260505012006 | 22 | 9 | 16.1 | 32.2 | 0.00 | 0.00 | 0.00 | 33 | 1006.3 |
| 20260505011007 | 23 | 0 | 16.1 | 27.4 | 0.00 | 0.00 | 0.00 | 33 | 1006.2 |
| 20260505010005 | 23 | 21 | 12.9 | 25.7 | 0.00 | 0.00 | 0.00 | 34 | 1006.1 |
| 20260505005006 | 23 | 339 | 19.3 | 32.2 | 0.00 | 0.00 | 0.00 | 32 | 1005.9 |
| 20260505004006 | 23 | 287 | 14.5 | 29.0 | 0.00 | 0.00 | 0.00 | 33 | 1005.9 |
| 20260504233006 | 24 | 338 | 16.1 | 24.1 | 0.00 | 0.00 | 0.00 | 33 | 1006.0 |
| 20260504225006 | 24 | 341 | 19.3 | 25.7 | 0.00 | 0.00 | 0.00 | 29 | 1006.0 |
| 20260504222006 | 24 | 235 | 9.7 | 20.9 | 0.00 | 0.00 | 0.00 | 29 | 1006.2 |
| 20260504221006 | 24 | 348 | 9.7 | 16.1 | 0.00 | 0.00 | 0.00 | 31 | 1006.3 |
| 20260504215006 | 23 | 294 | 8.0 | 22.5 | 0.00 | 0.00 | 0.00 | 32 | 1006.3 |
| 20260504212005 | 23 | 91 | 6.4 | 20.9 | 0.00 | 0.00 | 0.00 | 33 | 1006.4 |
| 20260504210004 | 23 | 218 | 9.7 | 19.3 | 0.00 | 0.00 | 0.00 | 34 | 1006.6 |
| 20260504204006 | 23 | 349 | 12.9 | 20.9 | 0.00 | 0.00 | 0.00 | 34 | 1006.7 |
| 20260504200004 | 22 | 247 | 4.8 | 14.5 | 0.00 | 0.00 | 0.00 | 37 | 1007.1 |